BOX114 EDDF-EBBR

Flight info

Callsign BOX114
Flight time N/A
Altitude 22000
Route SOBRA2L/18 SOBRA DCT IDOVI DCT ROPUV DCT EBBN DCT LNO
Aircraft B77L/H-SDE1E2E3FGHIJ2J3J4J5M1RWXY/LB1D1

Departure

Time N/A
Airport Frankfurt Main Airport (EDDF)

Arrival

Time 2026-05-05 17:54
Airport Brussels Airport (EBBR)
Time Latitude Longitude Altitude Speed Heading
2026-05-05 17:37 50.33653 5.97959 18925 ft 392 kts 290°
2026-05-05 17:38 50.34647 5.93995 18487 ft 389 kts 290°
2026-05-05 17:38 50.35631 5.90063 18050 ft 387 kts 290°
2026-05-05 17:38 50.36607 5.86157 17611 ft 384 kts 290°
2026-05-05 17:38 50.37578 5.82263 17177 ft 381 kts 290°
2026-05-05 17:39 50.38540 5.78403 16734 ft 379 kts 290°
2026-05-05 17:39 50.39491 5.74573 16298 ft 376 kts 290°
2026-05-05 17:39 50.40428 5.70794 15875 ft 374 kts 290°
2026-05-05 17:39 50.41365 5.67011 15453 ft 371 kts 290°
2026-05-05 17:40 50.42295 5.63250 15030 ft 368 kts 290°
2026-05-05 17:40 50.43204 5.59569 14613 ft 365 kts 290°
2026-05-05 17:40 50.44117 5.55869 14195 ft 362 kts 290°
2026-05-05 17:40 50.45022 5.52192 13774 ft 359 kts 290°
2026-05-05 17:41 50.45912 5.48568 13361 ft 356 kts 290°
2026-05-05 17:41 50.46796 5.44968 12950 ft 353 kts 290°
2026-05-05 17:41 50.47664 5.41426 12552 ft 350 kts 290°
2026-05-05 17:41 50.48543 5.37830 12136 ft 346 kts 290°
2026-05-05 17:42 50.49401 5.34315 11731 ft 343 kts 290°
2026-05-05 17:42 50.50241 5.30866 11330 ft 340 kts 290°
2026-05-05 17:42 50.51081 5.27413 10933 ft 337 kts 290°
2026-05-05 17:42 50.51913 5.23991 10594 ft 332 kts 290°
2026-05-05 17:43 50.52726 5.20643 10453 ft 321 kts 290°
2026-05-05 17:43 50.53506 5.17424 10290 ft 310 kts 290°
2026-05-05 17:43 50.54261 5.14303 10170 ft 299 kts 290°
2026-05-05 17:43 50.54983 5.11314 10038 ft 288 kts 290°
2026-05-05 17:44 50.55677 5.08434 9914 ft 277 kts 290°
2026-05-05 17:44 50.56345 5.05663 9753 ft 268 kts 290°
2026-05-05 17:44 50.57004 5.02906 9471 ft 271 kts 290°
2026-05-05 17:44 50.57676 5.00096 9187 ft 277 kts 290°
2026-05-05 17:45 50.58355 4.97272 8872 ft 279 kts 290°
2026-05-05 17:45 50.59034 4.94424 8547 ft 275 kts 290°
2026-05-05 17:45 50.59704 4.91627 8235 ft 271 kts 290°
2026-05-05 17:45 50.60365 4.88877 7929 ft 266 kts 290°
2026-05-05 17:46 50.61004 4.86208 7633 ft 261 kts 290°
2026-05-05 17:46 50.61639 4.83551 7340 ft 258 kts 290°
2026-05-05 17:46 50.62276 4.80887 7069 ft 263 kts 290°
2026-05-05 17:46 50.62927 4.78151 6770 ft 268 kts 290°
2026-05-05 17:47 50.63581 4.75399 6454 ft 267 kts 290°
2026-05-05 17:47 50.64223 4.72690 6164 ft 264 kts 290°
2026-05-05 17:47 50.64858 4.70013 5869 ft 259 kts 290°
2026-05-05 17:47 50.65488 4.67348 5573 ft 260 kts 290°
2026-05-05 17:48 50.66120 4.64668 5289 ft 261 kts 290°
2026-05-05 17:48 50.66756 4.61969 4993 ft 263 kts 290°
2026-05-05 17:48 50.67393 4.59271 4682 ft 261 kts 290°
2026-05-05 17:48 50.68012 4.56654 4539 ft 251 kts 291°
2026-05-05 17:49 50.68626 4.54049 4228 ft 257 kts 291°
2026-05-05 17:49 50.69248 4.51404 3946 ft 259 kts 291°
2026-05-05 17:49 50.69876 4.48724 3632 ft 259 kts 291°
2026-05-05 17:49 50.70489 4.46116 3508 ft 246 kts 293°
2026-05-05 17:50 50.71408 4.44003 3343 ft 226 kts 325°
2026-05-05 17:50 50.72786 4.43172 3189 ft 205 kts
2026-05-05 17:50 50.74175 4.43438 3041 ft 205 kts
2026-05-05 17:50 50.75571 4.43826 2828 ft 205 kts 13°
2026-05-05 17:51 50.76945 4.44353 2562 ft 201 kts 15°
2026-05-05 17:51 50.78253 4.44889 2316 ft 186 kts 15°
2026-05-05 17:51 50.79453 4.45380 2059 ft 171 kts 15°
2026-05-05 17:51 50.80541 4.45821 1824 ft 155 kts 14°
2026-05-05 17:52 50.81536 4.46227 1639 ft 141 kts 15°
2026-05-05 17:52 50.82173 4.46487 1549 ft 140 kts 15°
2026-05-05 17:52 50.83436 4.47001 1281 ft 141 kts 14°
2026-05-05 17:52 50.84370 4.47380 1090 ft 140 kts 14°
2026-05-05 17:53 50.85313 4.47765 915 ft 139 kts 15°
2026-05-05 17:53 50.86254 4.48150 722 ft 140 kts 14°
2026-05-05 17:53 50.86879 4.48401 603 ft 140 kts 15°
2026-05-05 17:53 50.87825 4.48791 415 ft 140 kts 15°
2026-05-05 17:54 50.88770 4.49174 238 ft 140 kts 14°
2026-05-05 17:54 50.89682 4.49548 189 ft 125 kts 14°
2026-05-05 17:54 50.90327 4.49809 190 ft 71 kts 14°
2026-05-05 17:54 50.90723 4.49935 204 ft 35 kts 354°
2026-05-05 17:55 50.90827 4.49901 202 ft 0 kts 344°
2026-05-05 17:55 50.90832 4.49897 195 ft 4 kts 339°
2026-05-05 17:55 50.90858 4.49860 187 ft 5 kts 303°
2026-05-05 17:55 50.90877 4.49810 195 ft 5 kts 299°
2026-05-05 17:56 50.90898 4.49741 186 ft 11 kts 289°
2026-05-05 17:56 50.90879 4.49600 189 ft 15 kts 247°
2026-05-05 17:56 50.90828 4.49428 189 ft 20 kts 245°
2026-05-05 17:56 50.90771 4.49231 186 ft 20 kts 246°
2026-05-05 17:57 50.90715 4.49031 189 ft 20 kts 246°
2026-05-05 17:57 50.90658 4.48832 198 ft 20 kts 246°
2026-05-05 17:57 50.90601 4.48633 187 ft 20 kts 245°
2026-05-05 17:57 50.90542 4.48434 192 ft 20 kts 245°
2026-05-05 17:58 50.90485 4.48235 193 ft 20 kts 245°
2026-05-05 17:58 50.90428 4.48036 191 ft 20 kts 245°
2026-05-05 17:58 50.90371 4.47837 194 ft 20 kts 246°
2026-05-05 17:58 50.90312 4.47639 196 ft 20 kts 245°
2026-05-05 17:59 50.90254 4.47441 187 ft 20 kts 245°
2026-05-05 17:59 50.90198 4.47243 199 ft 20 kts 246°
2026-05-05 17:59 50.90200 4.47038 197 ft 20 kts 295°
2026-05-05 17:59 50.90261 4.46841 192 ft 20 kts 296°
2026-05-05 18:00 50.90321 4.46645 197 ft 20 kts 296°
2026-05-05 18:00 50.90365 4.46458 191 ft 17 kts 274°
2026-05-05 18:00 50.90352 4.46321 190 ft 11 kts 283°
2026-05-05 18:00 50.90389 4.46270 195 ft 5 kts 329°
2026-05-05 18:01 50.90417 4.46248 187 ft 3 kts 335°
2026-05-05 18:01 50.90422 4.46244 189 ft 0 kts 335°